Time,TemperatureF,DewpointF,PressureIn,WindDirection,WindDirectionDegrees,WindSpeedMPH,WindSpeedGustMPH,Humidity,HourlyPrecipIn,Conditions,Clouds,dailyrainin,SoftwareType,DateUTC
2013-10-28 00:01:00,52.3,44.3,29.67,North,355,0.0,2.0,74,0.00,,,0.00,WeatherCatV1.23B16,2013-10-28 07:01:00,
2013-10-28 00:06:00,52.2,44.5,29.68,North,355,0.0,0.0,75,0.00,,,0.00,WeatherCatV1.23B16,2013-10-28 07:06:00,
2013-10-28 00:11:00,52.1,44.4,29.69,North,355,0.0,0.0,75,0.00,,,0.00,WeatherCatV1.23B16,2013-10-28 07:11:00,
2013-10-28 00:16:00,51.9,44.2,29.69,North,355,0.0,0.0,75,0.00,,,0.00,WeatherCatV1.23B16,2013-10-28 07:16:00,
2013-10-28 00:21:00,51.7,44.4,29.69,North,355,0.0,0.0,76,0.00,,,0.00,WeatherCatV1.23B16,2013-10-28 07:21:00,
2013-10-28 00:26:00,51.5,44.2,29.70,North,355,0.0,0.0,76,0.00,,,0.00,WeatherCatV1.23B16,2013-10-28 07:26:00,
2013-10-28 00:31:00,51.3,44.0,29.70,North,355,0.0,1.0,76,0.00,,,0.00,WeatherCatV1.23B16,2013-10-28 07:31:00,
2013-10-28 00:36:00,51.0,43.7,29.70,North,355,0.0,0.0,76,0.00,,,0.00,WeatherCatV1.23B16,2013-10-28 07:36:00,
2013-10-28 00:41:00,50.8,43.8,29.71,North,355,0.0,0.0,77,0.00,,,0.00,WeatherCatV1.23B16,2013-10-28 07:41:00,
2013-10-28 00:46:00,50.5,43.6,29.71,North,355,0.0,0.0,77,0.00,,,0.00,WeatherCatV1.23B16,2013-10-28 07:46:00,
2013-10-28 00:51:00,50.3,43.4,29.71,North,355,0.0,0.0,77,0.00,,,0.00,WeatherCatV1.23B16,2013-10-28 07:51:00,
2013-10-28 00:56:00,50.1,43.5,29.71,North,355,0.0,0.0,78,0.00,,,0.00,WeatherCatV1.23B16,2013-10-28 07:56:00,
2013-10-28 01:01:00,49.9,43.7,29.71,North,355,0.0,1.0,79,0.00,,,0.00,WeatherCatV1.23B16,2013-10-28 08:01:00,
2013-10-28 01:06:00,49.7,43.8,29.71,North,355,0.0,0.0,80,0.00,,,0.00,WeatherCatV1.23B16,2013-10-28 08:06:00,
2013-10-28 01:11:00,49.6,43.7,29.71,North,355,0.0,0.0,80,0.00,,,0.00,WeatherCatV1.23B16,2013-10-28 08:11:00,
2013-10-28 01:16:00,49.5,43.6,29.71,North,355,0.0,0.0,80,0.00,,,0.00,WeatherCatV1.23B16,2013-10-28 08:16:00,
2013-10-28 01:21:00,49.3,43.4,29.71,North,355,0.0,0.0,80,0.00,,,0.00,WeatherCatV1.23B16,2013-10-28 08:21:00,
2013-10-28 01:26:00,49.2,43.6,29.72,North,355,0.0,0.0,81,0.00,,,0.00,WeatherCatV1.23B16,2013-10-28 08:26:00,
2013-10-28 01:31:00,49.2,43.9,29.72,North,355,0.0,0.0,82,0.00,,,0.00,WeatherCatV1.23B16,2013-10-28 08:31:00,
2013-10-28 01:36:00,49.0,43.8,29.71,North,355,0.0,1.0,82,0.00,,,0.00,WeatherCatV1.23B16,2013-10-28 08:36:00,
2013-10-28 01:41:00,49.0,43.8,29.71,NNE,16,2.0,2.0,82,0.00,,,0.00,WeatherCatV1.23B16,2013-10-28 08:41:00,
2013-10-28 01:46:00,49.0,43.8,29.71,NNE,21,0.0,1.0,82,0.00,,,0.00,WeatherCatV1.23B16,2013-10-28 08:46:00,
2013-10-28 01:51:00,49.0,43.8,29.71,NNE,23,0.0,1.0,82,0.00,,,0.00,WeatherCatV1.23B16,2013-10-28 08:51:00,
2013-10-28 01:56:00,48.9,43.7,29.72,NNE,23,0.0,0.0,82,0.00,,,0.00,WeatherCatV1.23B16,2013-10-28 08:56:00,
2013-10-28 02:01:00,48.9,43.7,29.71,NNE,23,0.0,2.0,82,0.00,,,0.00,WeatherCatV1.23B16,2013-10-28 09:01:00,
2013-10-28 02:06:00,48.9,43.7,29.71,NNE,22,0.0,0.0,82,0.00,,,0.00,WeatherCatV1.23B16,2013-10-28 09:06:00,
2013-10-28 02:11:00,48.9,44.0,29.72,NNE,25,0.0,2.0,83,0.00,,,0.00,WeatherCatV1.23B16,2013-10-28 09:11:00,
2013-10-28 02:16:00,49.0,43.8,29.71,NNE,25,0.0,0.0,82,0.00,,,0.00,WeatherCatV1.23B16,2013-10-28 09:16:00,
2013-10-28 02:21:00,49.0,43.8,29.71,NNE,26,0.0,2.0,82,0.00,,,0.00,WeatherCatV1.23B16,2013-10-28 09:21:00,
2013-10-28 02:26:00,49.1,43.8,29.71,NNE,25,0.0,0.0,82,0.00,,,0.00,WeatherCatV1.23B16,2013-10-28 09:26:00,
2013-10-28 02:31:00,49.1,43.8,29.71,NNE,30,0.0,1.0,82,0.00,,,0.00,WeatherCatV1.23B16,2013-10-28 09:31:00,
2013-10-28 02:36:00,49.2,43.9,29.72,NNE,32,2.0,2.0,82,0.00,,,0.00,WeatherCatV1.23B16,2013-10-28 09:36:00,
2013-10-28 02:41:00,49.2,43.9,29.72,NNE,33,0.0,0.0,82,0.00,,,0.00,WeatherCatV1.23B16,2013-10-28 09:41:00,
2013-10-28 02:46:00,49.2,43.9,29.72,NNE,33,0.0,0.0,82,0.00,,,0.00,WeatherCatV1.23B16,2013-10-28 09:46:00,
2013-10-28 02:51:00,49.2,43.9,29.72,NE,34,0.0,0.0,82,0.00,,,0.00,WeatherCatV1.23B16,2013-10-28 09:51:00,
2013-10-28 02:56:00,49.2,43.9,29.71,NE,34,0.0,0.0,82,0.00,,,0.00,WeatherCatV1.23B16,2013-10-28 09:56:00,
2013-10-28 03:01:00,49.3,44.0,29.71,NNE,33,0.0,0.0,82,0.00,,,0.00,WeatherCatV1.23B16,2013-10-28 10:01:00,
2013-10-28 03:06:00,49.4,44.1,29.71,NE,34,0.0,0.0,82,0.00,,,0.00,WeatherCatV1.23B16,2013-10-28 10:06:00,
2013-10-28 03:11:00,49.4,44.1,29.71,NE,34,0.0,0.0,82,0.00,,,0.00,WeatherCatV1.23B16,2013-10-28 10:11:00,
2013-10-28 03:16:00,49.4,44.1,29.71,NNE,33,0.0,0.0,82,0.00,,,0.00,WeatherCatV1.23B16,2013-10-28 10:16:00,
2013-10-28 03:21:00,49.6,44.3,29.71,NNE,33,0.0,0.0,82,0.00,,,0.00,WeatherCatV1.23B16,2013-10-28 10:21:00,
2013-10-28 03:26:00,49.6,44.0,29.71,NE,34,0.0,0.0,81,0.00,,,0.00,WeatherCatV1.23B16,2013-10-28 10:26:00,
2013-10-28 03:31:00,49.7,44.1,29.70,NE,34,0.0,0.0,81,0.00,,,0.00,WeatherCatV1.23B16,2013-10-28 10:31:00,
2013-10-28 03:36:00,49.8,44.2,29.70,NE,34,0.0,0.0,81,0.00,,,0.00,WeatherCatV1.23B16,2013-10-28 10:36:00,
2013-10-28 03:41:00,49.9,44.3,29.71,NE,34,0.0,0.0,81,0.00,,,0.00,WeatherCatV1.23B16,2013-10-28 10:41:00,
2013-10-28 03:46:00,50.0,44.7,29.70,NE,34,0.0,0.0,82,0.00,,,0.00,WeatherCatV1.23B16,2013-10-28 10:46:00,
2013-10-28 03:51:00,50.1,44.8,29.70,NNE,33,0.0,1.0,82,0.00,,,0.00,WeatherCatV1.23B16,2013-10-28 10:51:00,
2013-10-28 03:56:00,50.2,44.9,29.70,NNE,33,0.0,0.0,82,0.00,,,0.00,WeatherCatV1.23B16,2013-10-28 10:56:00,
2013-10-28 04:01:00,50.3,45.0,29.70,NE,34,0.0,0.0,82,0.00,,,0.00,WeatherCatV1.23B16,2013-10-28 11:01:00,
2013-10-28 04:06:00,50.5,44.9,29.70,NNE,33,0.0,0.0,81,0.00,,,0.00,WeatherCatV1.23B16,2013-10-28 11:06:00,
2013-10-28 04:11:00,50.6,45.0,29.71,NNE,33,0.0,0.0,81,0.00,,,0.00,WeatherCatV1.23B16,2013-10-28 11:11:00,
2013-10-28 04:16:00,50.8,45.2,29.71,NE,34,0.0,0.0,81,0.00,,,0.00,WeatherCatV1.23B16,2013-10-28 11:16:00,
2013-10-28 04:21:00,50.9,45.0,29.70,NE,34,0.0,0.0,80,0.00,,,0.00,WeatherCatV1.23B16,2013-10-28 11:21:00,
2013-10-28 04:26:00,51.0,45.0,29.70,NE,34,0.0,0.0,80,0.00,,,0.00,WeatherCatV1.23B16,2013-10-28 11:26:00,
2013-10-28 04:31:00,51.2,44.9,29.70,NNE,33,0.0,0.0,79,0.00,,,0.00,WeatherCatV1.23B16,2013-10-28 11:31:00,
2013-10-28 04:36:00,51.3,45.0,29.70,NNE,33,0.0,0.0,79,0.00,,,0.00,WeatherCatV1.23B16,2013-10-28 11:36:00,
2013-10-28 04:41:00,51.4,44.8,29.69,NE,34,0.0,0.0,78,0.00,,,0.00,WeatherCatV1.23B16,2013-10-28 11:41:00,
2013-10-28 04:46:00,51.5,44.5,29.69,NE,34,0.0,0.0,77,0.00,,,0.00,WeatherCatV1.23B16,2013-10-28 11:46:00,
2013-10-28 04:51:00,51.6,44.6,29.69,NE,34,0.0,0.0,77,0.00,,,0.00,WeatherCatV1.23B16,2013-10-28 11:51:00,
2013-10-28 04:56:00,51.6,44.6,29.69,NE,34,0.0,0.0,77,0.00,,,0.00,WeatherCatV1.23B16,2013-10-28 11:56:00,
2013-10-28 05:01:00,51.6,44.6,29.69,NE,34,0.0,0.0,77,0.00,,,0.00,WeatherCatV1.23B16,2013-10-28 12:01:00,
2013-10-28 05:06:00,51.7,44.7,29.69,NNE,33,0.0,0.0,77,0.00,,,0.00,WeatherCatV1.23B16,2013-10-28 12:06:00,
2013-10-28 05:11:00,51.6,44.6,29.69,NNE,33,0.0,0.0,77,0.00,,,0.00,WeatherCatV1.23B16,2013-10-28 12:11:00,
2013-10-28 05:16:00,51.5,44.5,29.70,NE,34,0.0,0.0,77,0.00,,,0.00,WeatherCatV1.23B16,2013-10-28 12:16:00,
2013-10-28 05:21:00,51.4,44.4,29.70,NE,34,0.0,0.0,77,0.00,,,0.00,WeatherCatV1.23B16,2013-10-28 12:21:00,
2013-10-28 05:26:00,51.3,44.3,29.70,NE,34,0.0,0.0,77,0.00,,,0.00,WeatherCatV1.23B16,2013-10-28 12:26:00,
2013-10-28 05:31:00,51.1,44.1,29.70,NE,34,0.0,0.0,77,0.00,,,0.00,WeatherCatV1.23B16,2013-10-28 12:31:00,
2013-10-28 05:36:00,51.0,44.4,29.70,NE,34,0.0,0.0,78,0.00,,,0.00,WeatherCatV1.23B16,2013-10-28 12:36:00,
2013-10-28 05:41:00,50.9,44.3,29.70,NNE,33,0.0,0.0,78,0.00,,,0.00,WeatherCatV1.23B16,2013-10-28 12:41:00,
2013-10-28 05:46:00,51.0,44.7,29.70,ESE,123,1.0,2.0,79,0.00,,,0.00,WeatherCatV1.23B16,2013-10-28 12:46:00,
2013-10-28 05:51:00,51.0,44.7,29.70,ESE,117,0.0,4.0,79,0.00,,,0.00,WeatherCatV1.23B16,2013-10-28 12:51:00,
2013-10-28 05:56:00,51.1,44.8,29.69,East,99,0.0,0.0,79,0.00,,,0.00,WeatherCatV1.23B16,2013-10-28 12:56:00,
2013-10-28 06:01:00,51.0,45.0,29.70,ESE,107,0.0,1.0,80,0.00,,,0.00,WeatherCatV1.23B16,2013-10-28 13:01:00,
2013-10-28 06:06:00,51.0,45.0,29.69,SE,125,1.0,1.0,80,0.00,,,0.00,WeatherCatV1.23B16,2013-10-28 13:06:00,
2013-10-28 06:11:00,51.0,45.0,29.70,ESE,110,0.0,3.0,80,0.00,,,0.00,WeatherCatV1.23B16,2013-10-28 13:11:00,
2013-10-28 06:16:00,51.0,45.0,29.69,ESE,118,0.0,2.0,80,0.00,,,0.00,WeatherCatV1.23B16,2013-10-28 13:16:00,
2013-10-28 06:21:00,50.9,45.0,29.69,SE,125,0.0,1.0,80,0.00,,,0.00,WeatherCatV1.23B16,2013-10-28 13:21:00,
2013-10-28 06:26:00,50.9,45.0,29.69,SE,140,0.0,4.0,80,0.00,,,0.00,WeatherCatV1.23B16,2013-10-28 13:26:00,
2013-10-28 06:31:00,50.8,45.2,29.70,SE,131,1.0,2.0,81,0.00,,,0.00,WeatherCatV1.23B16,2013-10-28 13:31:00,
2013-10-28 06:36:00,50.8,45.2,29.69,SE,133,1.0,1.0,81,0.00,,,0.00,WeatherCatV1.23B16,2013-10-28 13:36:00,
2013-10-28 06:41:00,50.7,45.1,29.69,SE,126,0.0,2.0,81,0.00,,,0.00,WeatherCatV1.23B16,2013-10-28 13:41:00,
2013-10-28 06:46:00,50.6,45.0,29.69,SSE,149,1.0,3.0,81,0.00,,,0.00,WeatherCatV1.23B16,2013-10-28 13:46:00,
2013-10-28 06:51:00,50.6,45.0,29.69,ESE,122,0.0,0.0,81,0.00,,,0.00,WeatherCatV1.23B16,2013-10-28 13:51:00,
2013-10-28 06:56:00,50.6,45.0,29.69,ESE,122,0.0,1.0,81,0.00,,,0.00,WeatherCatV1.23B16,2013-10-28 13:56:00,
2013-10-28 07:01:00,50.6,45.0,29.69,ESE,122,0.0,0.0,81,0.00,,,0.00,WeatherCatV1.23B16,2013-10-28 14:01:00,
2013-10-28 07:06:00,50.6,45.3,29.69,ESE,122,1.0,1.0,82,0.00,,,0.00,WeatherCatV1.23B16,2013-10-28 14:06:00,
2013-10-28 07:11:00,50.6,45.3,29.69,ESE,121,0.0,2.0,82,0.00,,,0.00,WeatherCatV1.23B16,2013-10-28 14:11:00,
2013-10-28 07:16:00,50.6,45.3,29.69,ESE,121,0.0,0.0,82,0.00,,,0.00,WeatherCatV1.23B16,2013-10-28 14:16:00,
2013-10-28 07:21:00,50.6,45.3,29.69,ESE,121,0.0,0.0,82,0.00,,,0.00,WeatherCatV1.23B16,2013-10-28 14:21:00,
2013-10-28 07:26:00,50.6,45.3,29.69,ESE,121,1.0,1.0,82,0.00,,,0.00,WeatherCatV1.23B16,2013-10-28 14:26:00,
2013-10-28 07:31:00,50.6,45.3,29.69,ESE,122,0.0,2.0,82,0.00,,,0.00,WeatherCatV1.23B16,2013-10-28 14:31:00,
2013-10-28 07:36:00,50.6,45.3,29.70,ESE,122,0.0,0.0,82,0.00,,,0.00,WeatherCatV1.23B16,2013-10-28 14:36:00,
2013-10-28 07:41:00,50.6,45.3,29.70,ESE,122,0.0,0.0,82,0.00,,,0.00,WeatherCatV1.23B16,2013-10-28 14:41:00,
2013-10-28 07:46:00,50.7,45.1,29.70,SE,126,0.0,2.0,81,0.00,,,0.00,WeatherCatV1.23B16,2013-10-28 14:46:00,
2013-10-28 07:51:00,50.8,45.2,29.70,SE,127,0.0,0.0,81,0.00,,,0.00,WeatherCatV1.23B16,2013-10-28 14:51:00,
2013-10-28 07:56:00,50.9,45.3,29.70,ESE,123,0.0,1.0,81,0.00,,,0.00,WeatherCatV1.23B16,2013-10-28 14:56:00,
2013-10-28 08:01:00,51.1,45.2,29.70,SE,142,0.0,0.0,80,0.00,,,0.00,WeatherCatV1.23B16,2013-10-28 15:01:00,
2013-10-28 08:06:00,51.2,45.2,29.70,SE,131,0.0,0.0,80,0.00,,,0.00,WeatherCatV1.23B16,2013-10-28 15:06:00,
2013-10-28 08:11:00,51.3,45.0,29.71,SE,139,0.0,2.0,79,0.00,,,0.00,WeatherCatV1.23B16,2013-10-28 15:11:00,
2013-10-28 08:16:00,51.5,44.9,29.71,ESE,111,0.0,0.0,78,0.00,,,0.00,WeatherCatV1.23B16,2013-10-28 15:16:00,
2013-10-28 08:21:00,51.6,45.0,29.71,SE,134,0.0,0.0,78,0.00,,,0.00,WeatherCatV1.23B16,2013-10-28 15:21:00,
2013-10-28 08:26:00,51.7,44.7,29.72,South,177,0.0,0.0,77,0.00,,,0.00,WeatherCatV1.23B16,2013-10-28 15:26:00,
2013-10-28 08:31:00,51.9,45.3,29.72,South,177,0.0,0.0,78,0.00,,,0.00,WeatherCatV1.23B16,2013-10-28 15:31:00,
2013-10-28 08:36:00,52.0,45.7,29.72,South,173,0.0,0.0,79,0.00,,,0.00,WeatherCatV1.23B16,2013-10-28 15:36:00,
2013-10-28 08:41:00,52.1,46.1,29.73,South,174,0.0,0.0,80,0.00,,,0.00,WeatherCatV1.23B16,2013-10-28 15:41:00,
2013-10-28 08:46:00,52.1,46.5,29.73,South,173,1.0,1.0,81,0.00,,,0.00,WeatherCatV1.23B16,2013-10-28 15:46:00,
2013-10-28 08:51:00,52.2,46.2,29.73,South,184,0.0,1.0,80,0.00,,,0.00,WeatherCatV1.23B16,2013-10-28 15:51:00,
2013-10-28 08:56:00,52.3,46.6,29.73,South,184,0.0,0.0,81,0.00,,,0.00,WeatherCatV1.23B16,2013-10-28 15:56:00,
2013-10-28 09:01:00,52.5,47.2,29.73,South,184,0.0,0.0,82,0.00,,,0.00,WeatherCatV1.23B16,2013-10-28 16:01:00,
2013-10-28 09:06:00,52.8,47.5,29.72,South,184,1.0,1.0,82,0.00,,,0.00,WeatherCatV1.23B16,2013-10-28 16:06:00,
2013-10-28 09:11:00,53.0,47.3,29.73,SSE,164,0.0,3.0,81,0.00,,,0.00,WeatherCatV1.23B16,2013-10-28 16:11:00,
2013-10-28 09:16:00,53.3,47.3,29.73,SE,134,1.0,2.0,80,0.00,,,0.00,WeatherCatV1.23B16,2013-10-28 16:16:00,
2013-10-28 09:21:00,53.5,47.5,29.73,SE,131,0.0,1.0,80,0.00,,,0.00,WeatherCatV1.23B16,2013-10-28 16:21:00,
2013-10-28 09:26:00,53.7,47.3,29.73,SSE,164,0.0,4.0,79,0.00,,,0.00,WeatherCatV1.23B16,2013-10-28 16:26:00,
2013-10-28 09:31:00,53.7,47.3,29.73,SE,145,0.0,2.0,79,0.00,,,0.00,WeatherCatV1.23B16,2013-10-28 16:31:00,
2013-10-28 09:36:00,53.9,47.5,29.73,SSE,161,0.0,4.0,79,0.00,,,0.00,WeatherCatV1.23B16,2013-10-28 16:36:00,
2013-10-28 09:41:00,54.0,47.3,29.74,SSE,153,0.0,1.0,78,0.00,,,0.00,WeatherCatV1.23B16,2013-10-28 16:41:00,
2013-10-28 09:46:00,54.2,47.5,29.73,SSE,161,0.0,4.0,78,0.00,,,0.00,WeatherCatV1.23B16,2013-10-28 16:46:00,
2013-10-28 09:51:00,54.5,47.8,29.73,South,176,3.0,3.0,78,0.00,,,0.00,WeatherCatV1.23B16,2013-10-28 16:51:00,
2013-10-28 09:56:00,54.9,47.8,29.74,South,172,1.0,2.0,77,0.00,,,0.00,WeatherCatV1.23B16,2013-10-28 16:56:00,
2013-10-28 10:01:00,55.3,47.5,29.74,South,170,0.0,4.0,75,0.00,,,0.00,WeatherCatV1.23B16,2013-10-28 17:01:00,
2013-10-28 10:06:00,55.5,47.3,29.74,South,174,0.0,5.0,74,0.00,,,0.00,WeatherCatV1.23B16,2013-10-28 17:06:00,
2013-10-28 10:11:00,55.8,47.3,29.74,South,175,0.0,3.0,73,0.00,,,0.00,WeatherCatV1.23B16,2013-10-28 17:11:00,
2013-10-28 10:16:00,56.0,47.5,29.74,South,174,1.0,1.0,73,0.00,,,0.00,WeatherCatV1.23B16,2013-10-28 17:16:00,
2013-10-28 10:21:00,56.5,47.6,29.74,South,175,0.0,4.0,72,0.00,,,0.00,WeatherCatV1.23B16,2013-10-28 17:21:00,
2013-10-28 10:26:00,56.9,47.2,29.74,SSE,161,0.0,4.0,70,0.00,,,0.00,WeatherCatV1.23B16,2013-10-28 17:26:00,
2013-10-28 10:31:00,57.4,47.7,29.74,South,181,3.0,4.0,70,0.00,,,0.00,WeatherCatV1.23B16,2013-10-28 17:31:00,
2013-10-28 10:36:00,57.7,47.2,29.74,South,180,2.0,10.0,68,0.00,,,0.00,WeatherCatV1.23B16,2013-10-28 17:36:00,
2013-10-28 10:41:00,58.0,47.1,29.74,SSW,204,0.0,7.0,67,0.00,,,0.00,WeatherCatV1.23B16,2013-10-28 17:41:00,
2013-10-28 10:46:00,58.4,47.9,29.74,South,191,6.0,6.0,68,0.00,,,0.00,WeatherCatV1.23B16,2013-10-28 17:46:00,
2013-10-28 10:51:00,58.7,47.0,29.74,South,184,5.0,8.0,65,0.00,,,0.00,WeatherCatV1.23B16,2013-10-28 17:51:00,
2013-10-28 10:56:00,58.8,47.5,29.75,South,176,5.0,6.0,66,0.00,,,0.00,WeatherCatV1.23B16,2013-10-28 17:56:00,
2013-10-28 11:01:00,58.6,46.5,29.75,SSE,167,0.0,5.0,64,0.00,,,0.00,WeatherCatV1.23B16,2013-10-28 18:01:00,
2013-10-28 11:06:00,58.4,46.3,29.75,SSW,201,4.0,6.0,64,0.00,,,0.00,WeatherCatV1.23B16,2013-10-28 18:06:00,
2013-10-28 11:11:00,58.2,46.5,29.75,South,185,1.0,5.0,65,0.00,,,0.00,WeatherCatV1.23B16,2013-10-28 18:11:00,
2013-10-28 11:16:00,58.4,47.5,29.75,SSW,197,0.0,4.0,67,0.00,,,0.00,WeatherCatV1.23B16,2013-10-28 18:16:00,
2013-10-28 11:21:00,58.7,47.0,29.75,SW,215,3.0,6.0,65,0.00,,,0.00,WeatherCatV1.23B16,2013-10-28 18:21:00,
2013-10-28 11:26:00,59.0,48.1,29.75,SSW,213,4.0,4.0,67,0.00,,,0.00,WeatherCatV1.23B16,2013-10-28 18:26:00,
2013-10-28 11:31:00,59.1,46.9,29.75,SSW,200,2.0,6.0,64,0.00,,,0.00,WeatherCatV1.23B16,2013-10-28 18:31:00,
2013-10-28 11:36:00,59.2,47.0,29.75,South,186,1.0,6.0,64,0.00,,,0.00,WeatherCatV1.23B16,2013-10-28 18:36:00,
2013-10-28 11:41:00,59.3,46.3,29.75,SSE,157,1.0,6.0,62,0.00,,,0.00,WeatherCatV1.23B16,2013-10-28 18:41:00,
2013-10-28 11:46:00,59.2,46.6,29.75,SSW,195,0.0,2.0,63,0.00,,,0.00,WeatherCatV1.23B16,2013-10-28 18:46:00,
2013-10-28 11:51:00,59.1,46.1,29.75,SSW,192,0.0,2.0,62,0.00,,,0.00,WeatherCatV1.23B16,2013-10-28 18:51:00,
2013-10-28 11:56:00,59.1,46.5,29.75,South,171,4.0,6.0,63,0.00,,,0.00,WeatherCatV1.23B16,2013-10-28 18:56:00,
2013-10-28 12:01:00,59.0,46.0,29.75,South,169,0.0,2.0,62,0.00,,,0.00,WeatherCatV1.23B16,2013-10-28 19:01:00,
2013-10-28 12:06:00,59.0,46.0,29.74,South,170,0.0,1.0,62,0.00,,,0.00,WeatherCatV1.23B16,2013-10-28 19:06:00,
2013-10-28 12:11:00,59.1,46.1,29.74,South,173,0.0,0.0,62,0.00,,,0.00,WeatherCatV1.23B16,2013-10-28 19:11:00,
2013-10-28 12:16:00,59.1,45.7,29.74,South,173,0.0,0.0,61,0.00,,,0.00,WeatherCatV1.23B16,2013-10-28 19:16:00,
2013-10-28 12:21:00,59.2,46.6,29.74,South,173,0.0,0.0,63,0.00,,,0.00,WeatherCatV1.23B16,2013-10-28 19:21:00,
2013-10-28 12:26:00,59.3,46.3,29.74,South,173,0.0,2.0,62,0.00,,,0.00,WeatherCatV1.23B16,2013-10-28 19:26:00,
2013-10-28 12:31:00,59.3,46.3,29.74,South,173,0.0,1.0,62,0.00,,,0.00,WeatherCatV1.23B16,2013-10-28 19:31:00,
2013-10-28 12:36:00,59.4,46.4,29.73,South,173,0.0,0.0,62,0.00,,,0.00,WeatherCatV1.23B16,2013-10-28 19:36:00,
2013-10-28 12:41:00,59.6,46.1,29.73,South,172,0.0,1.0,61,0.00,,,0.00,WeatherCatV1.23B16,2013-10-28 19:41:00,
2013-10-28 12:46:00,59.9,46.4,29.73,South,178,0.0,4.0,61,0.00,,,0.00,WeatherCatV1.23B16,2013-10-28 19:46:00,
2013-10-28 12:51:00,60.1,46.2,29.73,South,172,1.0,4.0,60,0.00,,,0.00,WeatherCatV1.23B16,2013-10-28 19:51:00,
2013-10-28 12:56:00,60.0,45.6,29.73,SSW,195,0.0,1.0,59,0.00,,,0.00,WeatherCatV1.23B16,2013-10-28 19:56:00,
2013-10-28 13:01:00,60.0,45.6,29.73,SSW,195,0.0,0.0,59,0.00,,,0.00,WeatherCatV1.23B16,2013-10-28 20:01:00,
2013-10-28 13:06:00,60.1,46.6,29.72,SSW,195,0.0,0.0,61,0.00,,,0.00,WeatherCatV1.23B16,2013-10-28 20:06:00,
2013-10-28 13:11:00,60.0,45.6,29.72,SSW,195,0.0,0.0,59,0.00,,,0.00,WeatherCatV1.23B16,2013-10-28 20:11:00,
2013-10-28 13:16:00,59.9,45.5,29.72,SW,233,0.0,0.0,59,0.00,,,0.00,WeatherCatV1.23B16,2013-10-28 20:16:00,
2013-10-28 13:21:00,60.0,46.1,29.72,SW,233,0.0,0.0,60,0.00,,,0.00,WeatherCatV1.23B16,2013-10-28 20:21:00,
2013-10-28 13:26:00,59.8,48.0,29.73,WSW,244,3.0,5.0,65,0.00,,,0.00,WeatherCatV1.23B16,2013-10-28 20:26:00,
2013-10-28 13:31:00,59.2,48.6,29.72,SSW,203,0.0,0.0,68,0.00,,,0.00,WeatherCatV1.23B16,2013-10-28 20:31:00,
2013-10-28 13:36:00,57.8,46.9,29.72,SSW,198,0.0,1.0,67,0.00,,,0.00,WeatherCatV1.23B16,2013-10-28 20:36:00,
2013-10-28 13:41:00,57.0,47.7,29.72,SSW,198,0.0,0.0,71,0.00,,,0.00,WeatherCatV1.23B16,2013-10-28 20:41:00,
2013-10-28 13:46:00,56.6,49.1,29.72,SSW,202,0.0,0.0,76,0.00,,,0.00,WeatherCatV1.23B16,2013-10-28 20:46:00,
2013-10-28 13:51:00,56.4,50.0,29.72,SSW,203,0.0,0.0,79,0.00,,,0.00,WeatherCatV1.23B16,2013-10-28 20:51:00,
2013-10-28 13:56:00,56.3,50.2,29.72,SSW,203,0.0,1.0,80,0.00,,,0.00,WeatherCatV1.23B16,2013-10-28 20:56:00,
2013-10-28 14:01:00,56.2,50.5,29.72,SSW,203,0.0,0.0,81,0.00,,,0.00,WeatherCatV1.23B16,2013-10-28 21:01:00,
2013-10-28 14:06:00,56.2,50.8,29.72,SSW,203,0.0,0.0,82,0.00,,,0.00,WeatherCatV1.23B16,2013-10-28 21:06:00,
2013-10-28 14:11:00,56.5,51.4,29.72,SSW,203,0.0,0.0,83,0.00,,,0.00,WeatherCatV1.23B16,2013-10-28 21:11:00,
2013-10-28 14:16:00,57.3,52.2,29.72,SSW,203,0.0,0.0,83,0.00,,,0.00,WeatherCatV1.23B16,2013-10-28 21:16:00,
2013-10-28 14:21:00,57.6,50.4,29.72,SSW,203,0.0,0.0,77,0.00,,,0.00,WeatherCatV1.23B16,2013-10-28 21:21:00,
2013-10-28 14:26:00,57.8,50.6,29.72,SSW,203,0.0,0.0,77,0.00,,,0.00,WeatherCatV1.23B16,2013-10-28 21:26:00,
2013-10-28 14:31:00,58.3,52.5,29.72,SSW,203,0.0,0.0,81,0.00,,,0.01,WeatherCatV1.23B16,2013-10-28 21:31:00,
2013-10-28 14:36:00,59.0,52.5,29.72,SSW,203,0.0,1.0,79,0.00,,,0.01,WeatherCatV1.23B16,2013-10-28 21:36:00,
2013-10-28 14:41:00,59.6,52.0,29.71,SSW,203,0.0,0.0,76,0.00,,,0.01,WeatherCatV1.23B16,2013-10-28 21:41:00,
2013-10-28 14:46:00,59.9,50.8,29.71,SSW,203,0.0,1.0,72,0.00,,,0.01,WeatherCatV1.23B16,2013-10-28 21:46:00,
2013-10-28 14:51:00,60.4,51.0,29.71,SSW,203,0.0,1.0,71,0.00,,,0.01,WeatherCatV1.23B16,2013-10-28 21:51:00,
2013-10-28 14:56:00,61.4,51.5,29.71,SSW,203,0.0,0.0,70,0.00,,,0.01,WeatherCatV1.23B16,2013-10-28 21:56:00,
2013-10-28 15:01:00,62.0,51.3,29.71,SSW,203,0.0,0.0,68,0.00,,,0.01,WeatherCatV1.23B16,2013-10-28 22:01:00,
2013-10-28 15:06:00,62.3,50.4,29.71,SSW,203,0.0,1.0,65,0.00,,,0.01,WeatherCatV1.23B16,2013-10-28 22:06:00,
2013-10-28 15:11:00,62.6,48.1,29.72,SSW,203,0.0,0.0,59,0.00,,,0.01,WeatherCatV1.23B16,2013-10-28 22:11:00,
2013-10-28 15:16:00,62.9,47.9,29.72,SSW,203,0.0,0.0,58,0.00,,,0.01,WeatherCatV1.23B16,2013-10-28 22:16:00,
2013-10-28 15:21:00,63.1,48.1,29.72,SSW,203,0.0,0.0,58,0.00,,,0.01,WeatherCatV1.23B16,2013-10-28 22:21:00,
2013-10-28 15:26:00,63.2,47.2,29.72,SSW,203,0.0,1.0,56,0.00,,,0.01,WeatherCatV1.23B16,2013-10-28 22:26:00,
2013-10-28 15:31:00,62.9,46.5,29.72,SSW,203,0.0,0.0,55,0.00,,,0.01,WeatherCatV1.23B16,2013-10-28 22:31:00,
2013-10-28 15:36:00,62.8,46.4,29.72,South,183,0.0,1.0,55,0.00,,,0.01,WeatherCatV1.23B16,2013-10-28 22:36:00,
2013-10-28 15:41:00,63.1,47.1,29.72,South,180,0.0,0.0,56,0.00,,,0.01,WeatherCatV1.23B16,2013-10-28 22:41:00,
2013-10-28 15:46:00,63.2,48.2,29.72,South,178,0.0,0.0,58,0.00,,,0.01,WeatherCatV1.23B16,2013-10-28 22:46:00,
2013-10-28 15:51:00,63.5,46.1,29.72,South,178,0.0,1.0,53,0.00,,,0.01,WeatherCatV1.23B16,2013-10-28 22:51:00,
2013-10-28 15:56:00,63.8,46.8,29.72,East,90,0.0,2.0,54,0.00,,,0.01,WeatherCatV1.23B16,2013-10-28 22:56:00,
2013-10-28 16:01:00,63.7,46.2,29.73,ENE,76,0.0,2.0,53,0.00,,,0.01,WeatherCatV1.23B16,2013-10-28 23:01:00,
2013-10-28 16:06:00,63.6,50.3,29.73,ENE,70,0.0,2.0,62,0.00,,,0.01,WeatherCatV1.23B16,2013-10-28 23:06:00,
2013-10-28 16:11:00,63.1,50.3,29.73,NNW,348,2.0,6.0,63,0.00,,,0.01,WeatherCatV1.23B16,2013-10-28 23:11:00,
2013-10-28 16:16:00,62.3,50.4,29.73,NNE,18,0.0,4.0,65,0.00,,,0.01,WeatherCatV1.23B16,2013-10-28 23:16:00,
2013-10-28 16:21:00,61.3,49.4,29.73,NE,36,3.0,9.0,65,0.00,,,0.02,WeatherCatV1.23B16,2013-10-28 23:21:00,
2013-10-28 16:26:00,60.3,49.7,29.73,ENE,61,2.0,5.0,68,0.00,,,0.02,WeatherCatV1.23B16,2013-10-28 23:26:00,
2013-10-28 16:31:00,59.7,49.9,29.73,NE,44,0.0,2.0,70,0.00,,,0.02,WeatherCatV1.23B16,2013-10-28 23:31:00,
2013-10-28 16:36:00,59.6,50.2,29.73,NE,38,3.0,4.0,71,0.00,,,0.02,WeatherCatV1.23B16,2013-10-28 23:36:00,
2013-10-28 16:41:00,59.5,50.1,29.74,NE,47,0.0,1.0,71,0.00,,,0.02,WeatherCatV1.23B16,2013-10-28 23:41:00,
2013-10-28 16:46:00,59.3,49.5,29.74,ESE,114,0.0,3.0,70,0.00,,,0.02,WeatherCatV1.23B16,2013-10-28 23:46:00,
2013-10-28 16:51:00,58.9,49.5,29.74,NNE,13,0.0,2.0,71,0.00,,,0.02,WeatherCatV1.23B16,2013-10-28 23:51:00,
2013-10-28 16:56:00,58.4,48.7,29.74,ENE,60,0.0,4.0,70,0.00,,,0.02,WeatherCatV1.23B16,2013-10-28 23:56:00,
2013-10-28 17:01:00,57.9,48.5,29.74,NE,53,0.0,0.0,71,0.00,,,0.02,WeatherCatV1.23B16,2013-10-29 00:01:00,
2013-10-28 17:06:00,57.5,48.9,29.74,ENE,58,0.0,3.0,73,0.00,,,0.02,WeatherCatV1.23B16,2013-10-29 00:06:00,
2013-10-28 17:11:00,57.3,48.7,29.74,NE,55,1.0,1.0,73,0.00,,,0.02,WeatherCatV1.23B16,2013-10-29 00:11:00,
2013-10-28 17:16:00,57.0,48.4,29.74,ENE,72,0.0,6.0,73,0.00,,,0.02,WeatherCatV1.23B16,2013-10-29 00:16:00,
2013-10-28 17:21:00,56.7,48.1,29.74,ENE,72,0.0,2.0,73,0.00,,,0.02,WeatherCatV1.23B16,2013-10-29 00:21:00,
2013-10-28 17:26:00,56.4,48.2,29.74,NE,48,0.0,5.0,74,0.00,,,0.02,WeatherCatV1.23B16,2013-10-29 00:26:00,
2013-10-28 17:31:00,56.2,48.4,29.74,East,89,3.0,4.0,75,0.00,,,0.02,WeatherCatV1.23B16,2013-10-29 00:31:00,
2013-10-28 17:36:00,56.0,48.5,29.74,East,88,0.0,2.0,76,0.00,,,0.02,WeatherCatV1.23B16,2013-10-29 00:36:00,
2013-10-28 17:41:00,55.8,48.7,29.74,East,80,0.0,3.0,77,0.00,,,0.02,WeatherCatV1.23B16,2013-10-29 00:41:00,
2013-10-28 17:46:00,55.7,49.0,29.74,NE,36,0.0,5.0,78,0.00,,,0.02,WeatherCatV1.23B16,2013-10-29 00:46:00,
2013-10-28 17:51:00,55.4,48.7,29.75,NE,37,0.0,0.0,78,0.00,,,0.02,WeatherCatV1.23B16,2013-10-29 00:51:00,
2013-10-28 17:56:00,55.2,48.5,29.75,NE,56,0.0,5.0,78,0.00,,,0.02,WeatherCatV1.23B16,2013-10-29 00:56:00,
2013-10-28 18:01:00,55.0,48.6,29.75,NE,38,0.0,4.0,79,0.00,,,0.02,WeatherCatV1.23B16,2013-10-29 01:01:00,
2013-10-28 18:06:00,54.8,48.4,29.75,NE,44,0.0,2.0,79,0.00,,,0.02,WeatherCatV1.23B16,2013-10-29 01:06:00,
2013-10-28 18:11:00,54.6,48.5,29.75,NE,52,1.0,1.0,80,0.00,,,0.02,WeatherCatV1.23B16,2013-10-29 01:11:00,
2013-10-28 18:16:00,54.5,48.8,29.75,NE,50,2.0,2.0,81,0.00,,,0.02,WeatherCatV1.23B16,2013-10-29 01:16:00,
2013-10-28 18:22:00,54.3,48.6,29.75,NE,51,0.0,2.0,81,0.00,,,0.02,WeatherCatV1.23B16,2013-10-29 01:22:00,
2013-10-28 18:27:00,54.1,48.7,29.75,NNE,32,2.0,2.0,82,0.00,,,0.02,WeatherCatV1.23B16,2013-10-29 01:27:00,
2013-10-28 18:32:00,53.9,48.5,29.75,NE,34,0.0,3.0,82,0.00,,,0.02,WeatherCatV1.23B16,2013-10-29 01:32:00,
2013-10-28 18:37:00,53.7,48.7,29.75,NE,53,0.0,2.0,83,0.00,,,0.02,WeatherCatV1.23B16,2013-10-29 01:37:00,
2013-10-28 18:42:00,53.5,48.5,29.76,NE,54,0.0,0.0,83,0.00,,,0.03,WeatherCatV1.23B16,2013-10-29 01:42:00,
2013-10-28 18:47:00,53.3,48.6,29.76,NE,54,0.0,0.0,84,0.00,,,0.03,WeatherCatV1.23B16,2013-10-29 01:47:00,
2013-10-28 18:52:00,53.1,48.4,29.76,NE,50,0.0,2.0,84,0.00,,,0.03,WeatherCatV1.23B16,2013-10-29 01:52:00,
2013-10-28 18:57:00,52.9,48.5,29.76,NE,51,0.0,5.0,85,0.00,,,0.03,WeatherCatV1.23B16,2013-10-29 01:57:00,
2013-10-28 19:02:00,52.8,48.7,29.76,NE,53,0.0,1.0,86,0.00,,,0.03,WeatherCatV1.23B16,2013-10-29 02:02:00,
2013-10-28 19:07:00,52.8,48.7,29.76,ESE,105,0.0,0.0,86,0.00,,,0.03,WeatherCatV1.23B16,2013-10-29 02:07:00,
2013-10-28 19:12:00,52.8,49.0,29.76,East,98,0.0,1.0,87,0.00,,,0.03,WeatherCatV1.23B16,2013-10-29 02:12:00,
2013-10-28 19:17:00,52.8,49.0,29.76,ESE,102,0.0,1.0,87,0.00,,,0.03,WeatherCatV1.23B16,2013-10-29 02:17:00,
2013-10-28 19:22:00,52.7,48.9,29.77,East,99,0.0,0.0,87,0.00,,,0.03,WeatherCatV1.23B16,2013-10-29 02:22:00,
2013-10-28 19:27:00,52.6,48.8,29.77,East,98,0.0,2.0,87,0.00,,,0.03,WeatherCatV1.23B16,2013-10-29 02:27:00,
2013-10-28 19:32:00,52.5,48.7,29.77,East,98,0.0,0.0,87,0.00,,,0.03,WeatherCatV1.23B16,2013-10-29 02:32:00,
2013-10-28 19:37:00,52.3,48.5,29.77,East,98,0.0,0.0,87,0.00,,,0.03,WeatherCatV1.23B16,2013-10-29 02:37:00,
2013-10-28 19:42:00,52.2,48.5,29.78,East,101,0.0,1.0,87,0.00,,,0.03,WeatherCatV1.23B16,2013-10-29 02:42:00,
2013-10-28 19:47:00,52.1,48.3,29.78,East,99,0.0,0.0,87,0.00,,,0.03,WeatherCatV1.23B16,2013-10-29 02:47:00,
2013-10-28 19:52:00,51.9,48.2,29.78,East,98,0.0,1.0,87,0.00,,,0.03,WeatherCatV1.23B16,2013-10-29 02:52:00,
2013-10-28 19:57:00,51.7,48.0,29.78,East,98,0.0,1.0,87,0.00,,,0.03,WeatherCatV1.23B16,2013-10-29 02:57:00,
2013-10-28 20:02:00,51.6,47.9,29.78,NE,36,0.0,2.0,87,0.00,,,0.03,WeatherCatV1.23B16,2013-10-29 03:02:00,
2013-10-28 20:07:00,51.5,47.8,29.79,NE,36,0.0,1.0,87,0.00,,,0.03,WeatherCatV1.23B16,2013-10-29 03:07:00,
2013-10-28 20:12:00,51.4,48.0,29.79,NE,36,0.0,0.0,88,0.00,,,0.03,WeatherCatV1.23B16,2013-10-29 03:12:00,
2013-10-28 20:17:00,51.2,47.8,29.79,NE,37,0.0,0.0,88,0.00,,,0.03,WeatherCatV1.23B16,2013-10-29 03:17:00,
2013-10-28 20:22:00,51.1,47.7,29.79,NE,37,0.0,0.0,88,0.00,,,0.03,WeatherCatV1.23B16,2013-10-29 03:22:00,
2013-10-28 20:27:00,51.0,47.6,29.79,NE,37,0.0,1.0,88,0.00,,,0.03,WeatherCatV1.23B16,2013-10-29 03:27:00,
2013-10-28 20:32:00,50.9,47.5,29.79,NE,38,0.0,0.0,88,0.00,,,0.03,WeatherCatV1.23B16,2013-10-29 03:32:00,
2013-10-28 20:37:00,50.9,47.8,29.79,NE,38,0.0,0.0,89,0.00,,,0.03,WeatherCatV1.23B16,2013-10-29 03:37:00,
2013-10-28 20:42:00,50.9,47.8,29.79,NE,40,2.0,5.0,89,0.00,,,0.03,WeatherCatV1.23B16,2013-10-29 03:42:00,
2013-10-28 20:47:00,50.9,47.8,29.79,NE,40,0.0,0.0,89,0.00,,,0.03,WeatherCatV1.23B16,2013-10-29 03:47:00,
2013-10-28 20:52:00,50.9,47.8,29.80,NE,41,0.0,0.0,89,0.00,,,0.03,WeatherCatV1.23B16,2013-10-29 03:52:00,
2013-10-28 20:57:00,50.9,47.8,29.80,NE,44,0.0,1.0,89,0.00,,,0.03,WeatherCatV1.23B16,2013-10-29 03:57:00,
2013-10-28 21:01:00,50.9,47.8,29.80,ESE,103,0.0,4.0,89,0.00,,,0.03,WeatherCatV1.23B16,2013-10-29 04:01:00,
2013-10-28 21:02:00,50.9,47.8,29.80,ESE,109,2.0,4.0,89,0.00,,,0.03,WeatherCatV1.23B16,2013-10-29 04:02:00,
2013-10-28 21:07:00,51.0,47.9,29.80,East,82,0.0,4.0,89,0.00,,,0.03,WeatherCatV1.23B16,2013-10-29 04:07:00,
2013-10-28 21:12:00,51.0,47.9,29.80,ESE,123,0.0,0.0,89,0.00,,,0.03,WeatherCatV1.23B16,2013-10-29 04:12:00,
2013-10-28 21:17:00,50.9,47.8,29.80,ESE,105,0.0,1.0,89,0.00,,,0.03,WeatherCatV1.23B16,2013-10-29 04:17:00,
2013-10-28 21:22:00,50.9,47.5,29.81,ESE,109,0.0,1.0,88,0.00,,,0.03,WeatherCatV1.23B16,2013-10-29 04:22:00,
2013-10-28 21:27:00,50.8,47.4,29.81,ESE,111,0.0,1.0,88,0.00,,,0.03,WeatherCatV1.23B16,2013-10-29 04:27:00,
2013-10-28 21:32:00,50.8,47.4,29.81,ESE,110,0.0,1.0,88,0.00,,,0.03,WeatherCatV1.23B16,2013-10-29 04:32:00,
2013-10-28 21:37:00,50.7,47.3,29.81,East,81,0.0,2.0,88,0.00,,,0.03,WeatherCatV1.23B16,2013-10-29 04:37:00,
2013-10-28 21:42:00,50.6,47.2,29.82,East,88,0.0,3.0,88,0.00,,,0.03,WeatherCatV1.23B16,2013-10-29 04:42:00,
2013-10-28 21:47:00,50.6,47.2,29.82,East,96,0.0,2.0,88,0.00,,,0.03,WeatherCatV1.23B16,2013-10-29 04:47:00,
2013-10-28 21:52:00,50.5,47.1,29.82,East,96,0.0,3.0,88,0.00,,,0.03,WeatherCatV1.23B16,2013-10-29 04:52:00,
2013-10-28 21:57:00,50.5,47.1,29.82,East,94,0.0,2.0,88,0.00,,,0.03,WeatherCatV1.23B16,2013-10-29 04:57:00,
2013-10-28 22:02:00,50.5,47.1,29.82,East,95,0.0,1.0,88,0.00,,,0.03,WeatherCatV1.23B16,2013-10-29 05:02:00,
2013-10-28 22:07:00,50.4,47.0,29.82,East,95,0.0,2.0,88,0.00,,,0.03,WeatherCatV1.23B16,2013-10-29 05:07:00,
2013-10-28 22:12:00,50.5,47.1,29.83,East,95,0.0,1.0,88,0.00,,,0.03,WeatherCatV1.23B16,2013-10-29 05:12:00,
2013-10-28 22:17:00,50.4,47.0,29.83,East,96,0.0,0.0,88,0.00,,,0.03,WeatherCatV1.23B16,2013-10-29 05:17:00,
2013-10-28 22:22:00,50.4,47.0,29.83,East,97,0.0,4.0,88,0.00,,,0.03,WeatherCatV1.23B16,2013-10-29 05:22:00,
2013-10-28 22:27:00,50.4,47.0,29.83,East,98,0.0,0.0,88,0.00,,,0.03,WeatherCatV1.23B16,2013-10-29 05:27:00,
2013-10-28 22:32:00,50.3,46.9,29.83,East,98,0.0,1.0,88,0.00,,,0.03,WeatherCatV1.23B16,2013-10-29 05:32:00,
2013-10-28 22:37:00,50.2,46.8,29.83,East,96,0.0,2.0,88,0.00,,,0.03,WeatherCatV1.23B16,2013-10-29 05:37:00,
2013-10-28 22:42:00,50.1,46.7,29.83,East,96,0.0,2.0,88,0.00,,,0.03,WeatherCatV1.23B16,2013-10-29 05:42:00,
2013-10-28 22:47:00,50.0,46.6,29.84,East,96,0.0,1.0,88,0.00,,,0.03,WeatherCatV1.23B16,2013-10-29 05:47:00,
2013-10-28 22:52:00,49.8,46.4,29.84,East,96,0.0,0.0,88,0.00,,,0.03,WeatherCatV1.23B16,2013-10-29 05:52:00,
2013-10-28 22:57:00,49.7,46.6,29.84,East,96,0.0,1.0,89,0.00,,,0.03,WeatherCatV1.23B16,2013-10-29 05:57:00,
2013-10-28 23:02:00,49.5,46.4,29.84,East,96,0.0,1.0,89,0.00,,,0.03,WeatherCatV1.23B16,2013-10-29 06:02:00,
2013-10-28 23:07:00,49.4,46.3,29.84,East,96,0.0,1.0,89,0.00,,,0.03,WeatherCatV1.23B16,2013-10-29 06:07:00,
2013-10-28 23:12:00,49.3,46.2,29.84,East,96,0.0,0.0,89,0.00,,,0.03,WeatherCatV1.23B16,2013-10-29 06:12:00,
2013-10-28 23:17:00,49.1,46.0,29.84,East,96,0.0,0.0,89,0.00,,,0.03,WeatherCatV1.23B16,2013-10-29 06:17:00,
2013-10-28 23:22:00,49.0,45.9,29.85,East,96,0.0,0.0,89,0.00,,,0.03,WeatherCatV1.23B16,2013-10-29 06:22:00,
2013-10-28 23:27:00,48.9,46.1,29.85,East,96,0.0,0.0,90,0.00,,,0.03,WeatherCatV1.23B16,2013-10-29 06:27:00,
2013-10-28 23:32:00,48.8,46.0,29.85,East,96,0.0,0.0,90,0.00,,,0.03,WeatherCatV1.23B16,2013-10-29 06:32:00,
2013-10-28 23:37:00,48.7,45.9,29.85,East,96,0.0,0.0,90,0.00,,,0.03,WeatherCatV1.23B16,2013-10-29 06:37:00,
2013-10-28 23:42:00,48.6,45.8,29.85,East,96,0.0,0.0,90,0.00,,,0.03,WeatherCatV1.23B16,2013-10-29 06:42:00,
2013-10-28 23:47:00,48.5,45.7,29.85,East,96,0.0,0.0,90,0.00,,,0.03,WeatherCatV1.23B16,2013-10-29 06:47:00,
2013-10-28 23:52:00,48.3,45.5,29.85,East,96,0.0,0.0,90,0.00,,,0.03,WeatherCatV1.23B16,2013-10-29 06:52:00,
2013-10-28 23:57:00,48.2,45.4,29.85,East,96,0.0,0.0,90,0.00,,,0.03,WeatherCatV1.23B16,2013-10-29 06:57:00,